Location: Unspecified
(0.0000°N, 0.0000°E)
Time: 05:39:03
(UTC+02:00)

Vanguard 1 - Visible Passes

Search period start: 25 July 2014 00:00
Search period end: 04 August 2014 00:00
Orbit: 649 x 3838 km, 34.2° (Epoch: 19 July)

Date Brightness Start Highest point End Pass type
(mag) Time Alt. Az. Time Alt. Az. Time Alt. Az.
25 Jul 13.7 00:00:09 10° WSW 00:12:20 18° SSW 00:12:20 18° SSW visible
25 Jul 12.3 05:13:15 11° ESE 05:13:15 11° ESE 05:13:42 10° ESE visible
25 Jul 9.4 07:26:02 11° WSW 07:31:25 75° NW 07:35:47 10° NE visible
25 Jul 13.5 21:45:43 10° W 22:05:52 37° SSW 22:20:02 19° SSE visible
26 Jul 13.9 00:27:03 10° SW 00:32:48 14° SSW 00:32:48 14° SSW visible
26 Jul 11.6 05:33:49 23° SE 05:33:49 23° SE 05:36:37 10° E visible
26 Jul 13.5 22:10:17 10° W 22:29:03 30° SSW 22:40:28 19° SSE visible
27 Jul 10.6 05:54:22 41° SE 05:54:22 41° SE 05:58:54 10° ENE visible
27 Jul 13.4 20:02:20 10° WNW 20:22:01 54° SW 20:44:21 10° SE visible
27 Jul 13.6 22:35:38 10° WSW 22:52:35 24° SSW 23:00:53 19° S visible
28 Jul 9.8 06:14:56 58° SSW 06:15:57 71° SE 06:20:42 10° ENE visible
28 Jul 13.6 20:25:24 10° W 20:44:51 44° SSW 21:06:00 10° SE visible
28 Jul 13.6 23:01:40 10° WSW 23:16:29 20° SSW 23:21:17 18° S visible
29 Jul 9.7 06:35:29 41° WSW 06:37:30 65° NW 06:42:08 10° NE visible
29 Jul 13.7 20:49:04 10° W 21:07:59 36° SSW 21:27:39 10° SSE visible
29 Jul 13.7 23:27:56 10° SW 23:40:39 17° SSW 23:41:39 17° S visible
30 Jul 12.6 04:43:14 12° E 04:43:14 12° E 04:43:37 10° E visible
30 Jul 10.5 06:56:01 23° W 06:58:52 35° NW 07:03:09 10° NNE visible
30 Jul 13.7 21:13:23 10° WSW 21:31:27 29° SSW 21:49:13 10° SSE visible
30 Jul 13.8 23:53:43 10° SW 00:01:59 15° SSW 00:01:59 15° SSW visible
31 Jul 11.9 05:03:46 23° E 05:03:46 23° E 05:05:39 10° ENE visible
31 Jul 11.2 07:16:33 12° W 07:20:14 19° NW 07:23:38 10° N visible
31 Jul 13.7 21:38:25 10° WSW 21:55:19 24° SSW 22:09:32 13° SSE visible
01 Aug 13.9 00:18:22 10° SSW 00:22:18 13° SSW 00:22:18 13° SSW visible
01 Aug 11.1 05:24:17 39° ENE 05:24:17 39° ENE 05:27:19 10° NE visible
01 Aug 13.7 22:03:58 10° WSW 22:19:32 21° SSW 22:29:50 15° SSE visible
02 Aug 14.0 00:41:47 10° SSW 00:42:36 11° SSW 00:42:36 11° SSW visible
02 Aug 10.6 05:44:47 48° N 05:44:47 48° N 05:48:38 10° NE visible
02 Aug 13.8 19:53:14 10° W 20:10:15 34° SSW 20:30:25 10° SSE visible
02 Aug 13.7 22:29:38 10° SW 22:44:00 19° S 22:50:07 17° S visible
03 Aug 10.9 06:05:15 35° NNW 06:05:15 35° NNW 06:09:36 10° NNE visible
03 Aug 13.9 20:17:21 10° WSW 20:33:55 28° SSW 20:52:26 10° SSE visible
03 Aug 13.7 22:54:47 10° SW 23:08:34 18° S 23:10:23 18° S visible
